STARLINK-4318 (53086 NORAD) Tracking and Keplerian Element Data

This shows tracking and keplerian element data for the satellite.

Feedback or suggestion? Click here.




ElementValue
Catalog53086
NameSTARLINK-4318
Epoch Orbit1251
Epoch Day270.05370503
Epoch Year2022
RAAN89.9084
Inclination97.6566
Eccentricity0.0003706
Argument of Perigee38.2073
Mean Anonmoly321.9413
Mean Motion15.0125957
Decay Rate1.1E-07
L11 53086U 22077AV 22270.05370503 .00000011 00000+0 54837-5 0 9999
L22 53086 97.6566 89.9084 0003706 38.2073 321.9413 15.01259570 12517

Live tracking and technical data element details for STARLINK-4318 (NORAD 53086). STARLINK-4318 can be tracked NOW for your location showing map with azimuth and elevation plus other details from your city location.

Track the satellite on the map from your city or location and see movement details for azimuth, elevation, latitude, longitude, range, height, and movement on the map or in text.







IsCatalogInMostPopularTable: catalog: 53086, numindb: 4
Update: records affected: 3



GetName: 53086 STARLINK-4318

Hit Count: updated at: Thu, 29 Sep 2022 12:07:58 GMT